Location: Caixon
(43.4106°N, 0.0273°E)
Time: 20:34:21
(UTC+00:00)

CZ-2C R/B - Pass Details

Date: 16 October 2021
Orbit: 500 x 564 km, 97.8° (Epoch: 07 December)

Event Time Altitude Azimuth Distance (km) Brightness Sun altitude
Rises 03:58:49 0° 15° (NNE) 2,642 6.7 -25.4°
Reaches altitude 10° 04:00:57 10° 18° (NNE) 1,741 5.7 -25.0°
Enters shadow 04:04:09 57° 54° (NE) 601 3.2 -24.5°
